Location: Bergnershof
(48.9468°N, 10.9431°E)
Time: 14:11:20
(UTC+00:00)

Cosmos 2333 Rocket - Pass Details

Date: 02 July 2021
Orbit: 841 x 861 km, 70.8° (Epoch: 28 July)

Event Time Altitude Azimuth Distance (km) Brightness Sun altitude
Rises 21:21:48 0° 282° (WNW) 3,425 6.0 -13.4°
Reaches altitude 10° 21:26:14 10° 314° (NW) 2,487 5.9 -13.7°
Maximum altitude 21:28:12 12° 335° (NNW) 2,364 5.9 -13.8°
Drops below altitude 10° 21:30:10 10° 355° (N) 2,484 5.8 -14.0°
Sets 21:34:36 0° 27° (NNE) 3,418 5.9 -14.3°
